loading
|

STARLINK-11272, 60723

Orbit data source: Space-Track

STARLINK-11272, 60723 is a payload satellite owned by SpaceX/Seattle (US) in LEO that was launched on Wed, 28 Aug 2024 UTC via an FALCON 9 launch vehicle from the Air Force Eastern Test Range (AFETR). Payloads include a variety of satellites, spacecraft, and rockets equipped with specific instruments for various scientific and technological missions. These include communications satellites like Starlink; space stations such as the ISS; scientific satellites like the Hubble; Earth observation satellites from companies like Planet Labs, Umbra, and HawkEye 360; GPS; miniature CubeSats for education and research; and military/defense satellites.

Loading next visibility...
Next conjunction unknown
Loading greatness...
STARLINK-11272 details
Identifier
60723, 2024-152D
Orbit
LEO
Last TLE update17 hours ago
Origin
Flag of USSpaceX/Seattle (US)
ManufacturerSpaceX/Seattle
MissionOperational spacecraft
Bus & MotorSTARLINK V2M, Unknown motor
Mass750 kg wet, ~700 kg dry
Launch date (UTC)
2024-08-28 (2 months ago)
Launch vehicle
FALCON 9
Launch site
Air Force Eastern Test Range (AFETR)
Object type
Payload
Rocket body
Debris
Shape & HBRUnknown
Radar Cross SectionLarge (>1 m²)

Expand to show TLE details & history

TLE from 17 hours ago
0 STARLINK-11272
1 60723U 24152D   24287.91432240  .00010151  00000-0  88504-4 0  9997
2 60723  53.1579 119.2126 0001006 102.0064 258.1067 15.69720998  8476
Epoch: 2024-10-13T21:56Z
Definitive object data (Epoch: 2024-10-13T21:56:37.455Z)
Latitude0.00001°
Longitude127.10757°
Altitude360.75 km
Speed7.694 km/s
True Right ascension07h 56m 51s
True Declination0° 00' 00"
Sunlit
Object was in daylight at TLE epoch
Predictive object data (real-time)
Latitude-47.86012°
Longitude68.2854°
Altitude376.701 km
Speed7.683 km/s
Apparent Right ascension00h 20m 26s
Apparent Declination-57° 32' 49"
Sunlit
Object is in full shadow
Predictive observer data (real-time)
Local Sidereal Time09:01:57
Azimuth223.943° SW
Elevation-53.91°
Doppler factor1
Orbital elements
Apogee360.634 km
Perigee359.278 km
Semi-major axis6,738.093 km
Eccentricity0.0001006
Inclination53.1579°
RAAN119.2126°
Arg. of periapsis102.0064°
True anomaly258.09542°
Mean anomaly258.1067°
Eccentric anomaly258.10106°
Mean motion3.92408 °/min
BSTAR0.000088504
Period91.74 mins
No data available

STARLINK-11272 Visibility forecast

Observer location: 39.9160978°, -105.1181434

Span
Click to sort rows by Start time (UTC) header in descending order
Start Az.
Max El. time (UTC)
Max El. Az.
Max El.
End time (UTC)
End Az.
4 mins2024-10-14 14:54:54.845Z185.342° SSW2024-10-14 14:56:54.845Z136.512° SSE22.479°2024-10-14 14:58:54.845Z82.311° E